| time (UTC) | temp C | wind direction | speed KPH | gust KPH | rain 1hr cm | rain 24hr cm | rain mn cm | humidity % | barometer mb |
| 20260507000756 | -17 | 171 | 0.0 | 0.0 | 0.30 | 2.74 | 2.74 | 1010.7 | |
| 20260507000252 | -17 | 171 | 0.0 | 0.0 | 0.30 | 2.72 | 2.72 | 1010.6 | |
| 20260506235749 | -17 | 166 | 0.0 | 0.0 | 0.13 | 2.69 | 2.69 | 1010.5 | |
| 20260506235244 | -17 | 166 | 0.0 | 0.0 | 0.00 | 2.67 | 2.67 | 1010.4 | |
| 20260506234742 | -17 | 166 | 0.0 | 0.0 | 0.18 | 2.67 | 2.67 | 1010.3 | |
| 20260506234239 | -17 | 164 | 0.0 | 0.0 | 0.18 | 2.67 | 2.67 | 1010.1 | |
| 20260506233737 | -17 | 163 | 0.0 | 0.0 | 0.13 | 2.64 | 2.64 | 1010.1 | |
| 20260506233233 | -17 | 147 | 0.0 | 0.0 | 0.13 | 2.64 | 2.64 | 1010.1 | |
| 20260506232730 | -17 | 159 | 0.0 | 0.0 | 0.00 | 2.62 | 2.62 | 1010.0 | |
| 20260506232224 | -17 | 138 | 0.0 | 0.0 | 0.18 | 2.62 | 2.62 | 1009.8 | |
| 20260506231722 | -17 | 165 | 0.0 | 0.0 | 0.18 | 2.62 | 2.62 | 1009.8 | |
| 20260506231220 | -17 | 164 | 0.0 | 0.0 | 0.18 | 2.62 | 2.62 | 1009.5 | |
| 20260506230716 | -17 | 164 | 0.0 | 0.0 | 0.18 | 2.59 | 2.59 | 1009.7 | |
| 20260506230214 | -17 | 176 | 0.0 | 0.0 | 0.00 | 2.57 | 2.57 | 1009.6 | |
| 20260506225710 | -17 | 191 | 0.0 | 0.0 | 0.00 | 2.57 | 2.57 | 1009.8 | |
| 20260506225207 | -17 | 196 | 0.0 | 0.0 | 0.00 | 2.57 | 2.57 | 1009.6 | |
| 20260506224703 | -17 | 169 | 0.0 | 0.0 | 0.13 | 2.57 | 2.57 | 1009.6 | |
| 20260506224201 | -17 | 144 | 1.6 | 1.6 | 0.30 | 2.57 | 2.57 | 1009.6 | |
| 20260506223657 | -17 | 351 | 1.6 | 3.2 | 0.18 | 2.54 | 2.54 | 1009.5 | |
| 20260506223152 | -17 | 158 | 0.0 | 1.6 | 0.00 | 2.51 | 2.51 | 1009.5 | |
| 20260506222650 | -17 | 224 | 0.0 | 1.6 | 0.00 | 2.51 | 2.51 | 1009.7 | |
| 20260506222145 | -17 | 358 | 3.2 | 3.2 | 0.00 | 2.51 | 2.51 | 1009.2 | |
| 20260506221644 | -17 | 209 | 0.0 | 0.0 | 0.00 | 2.51 | 2.51 | 1009.3 | |
| 20260506221141 | -17 | 25 | 1.6 | 3.2 | 0.00 | 2.51 | 2.51 | 1009.0 | |
| 20260506220638 | -17 | 39 | 6.4 | 9.7 | 0.00 | 2.51 | 2.51 | 1009.3 | |
| 20260506220133 | -17 | 312 | 3.2 | 3.2 | 0.13 | 2.51 | 2.51 | 1009.3 | |
| 20260506215630 | -17 | 25 | 3.2 | 3.2 | 0.13 | 2.51 | 2.51 | 1009.5 | |
| 20260506215125 | -17 | 23 | 8.0 | 11.3 | 0.00 | 2.49 | 2.49 | 1009.3 | |
| 20260506214622 | -17 | 288 | 4.8 | 4.8 | 0.18 | 2.49 | 2.49 | 1009.2 | |
| 20260506214120 | -17 | 31 | 0.0 | 1.6 | 0.18 | 2.49 | 2.49 | 1009.1 | |
| 20260506213618 | -17 | 0 | 3.2 | 3.2 | 0.00 | 2.46 | 2.46 | 1009.5 | |
| 20260506213115 | -17 | 4 | 8.0 | 9.7 | 0.00 | 2.46 | 2.46 | 1009.5 | |
| 20260506212612 | -17 | 87 | 3.2 | 4.8 | 0.00 | 2.46 | 2.46 | 1009.2 | |
| 20260506212107 | -17 | 26 | 1.6 | 3.2 | 0.00 | 2.46 | 2.46 | 1008.9 | |
| 20260506211603 | -17 | 10 | 6.4 | 11.3 | 0.00 | 2.46 | 2.46 | 1009.0 | |
| 20260506211100 | -17 | 99 | 6.4 | 6.4 | 0.00 | 2.46 | 2.46 | 1008.9 | |
| 20260506210556 | -17 | 39 | 3.2 | 3.2 | 0.00 | 2.46 | 2.46 | 1008.8 | |
| 20260506210053 | -17 | 41 | 0.0 | 1.6 | 0.00 | 2.46 | 2.46 | 1008.9 | |
| 20260506205550 | -17 | 126 | 0.0 | 0.0 | 0.00 | 2.46 | 2.46 | 1008.6 | |
| 20260506205045 | -17 | 17 | 0.0 | 1.6 | 0.00 | 2.46 | 2.46 | 1008.6 | |
| 20260506204543 | -17 | 23 | 1.6 | 3.2 | 0.00 | 2.46 | 2.46 | 1008.7 | |
| 20260506204040 | -17 | 31 | 1.6 | 3.2 | 0.13 | 2.46 | 2.46 | 1008.7 | |
| 20260506203538 | -17 | 65 | 0.0 | 0.0 | 0.13 | 2.46 | 2.46 | 1008.8 | |
| 20260506203034 | -17 | 60 | 3.2 | 3.2 | 0.18 | 2.44 | 2.44 | 1008.8 | |
| 20260506202532 | -17 | 349 | 1.6 | 3.2 | 0.18 | 2.44 | 2.44 | 1008.7 | |
| 20260506202028 | -17 | 135 | 1.6 | 3.2 | 0.13 | 2.41 | 2.41 | 1008.8 | |
| 20260506201526 | -17 | 216 | 0.0 | 1.6 | 0.13 | 2.41 | 2.41 | 1008.8 | |
| 20260506201022 | -17 | 0 | 3.2 | 3.2 | 0.30 | 2.41 | 2.41 | 1008.6 | |
| 20260506200518 | -17 | 14 | 1.6 | 1.6 | 0.18 | 2.39 | 2.39 | 1008.8 | |
| 20260506200015 | -17 | 123 | 1.6 | 1.6 | 0.13 | 2.36 | 2.36 | 1008.7 | |
| 20260506195513 | -17 | 17 | 1.6 | 3.2 | 0.13 | 2.36 | 2.36 | 1009.0 | |
| 20260506195009 | -17 | 358 | 0.0 | 1.6 | 0.00 | 2.34 | 2.34 | 1008.9 | |
| 20260506194506 | -17 | 124 | 1.6 | 1.6 | 0.00 | 2.34 | 2.34 | 1009.0 | |
| 20260506194003 | -17 | 103 | 0.0 | 1.6 | 0.00 | 2.34 | 2.34 | 1008.8 | |
| 20260506193500 | -17 | 353 | 3.2 | 3.2 | 0.18 | 2.34 | 2.34 | 1008.8 | |
| 20260506192956 | -17 | 270 | 0.0 | 0.0 | 0.18 | 2.34 | 2.34 | 1008.9 | |
| 20260506192453 | -17 | 177 | 0.0 | 1.6 | 0.00 | 2.31 | 2.31 | 1008.8 | |
| 20260506191949 | -17 | 243 | 0.0 | 0.0 | 0.00 | 2.31 | 2.31 | 1008.9 | |
| 20260506191447 | -17 | 101 | 1.6 | 1.6 | 0.00 | 2.31 | 2.31 | 1008.9 | |
| 20260506190943 | -17 | 215 | 3.2 | 3.2 | 0.00 | 2.31 | 2.31 | 1008.8 | |
| 20260506190440 | -17 | 167 | 0.0 | 0.0 | 0.00 | 2.31 | 2.31 | 1008.9 | |
| 20260506185937 | -17 | 21 | 1.6 | 3.2 | 0.00 | 2.31 | 2.31 | 1008.8 | |
| 20260506185434 | -17 | 329 | 1.6 | 1.6 | 0.00 | 2.31 | 2.31 | 1008.8 | |
| 20260506184931 | -17 | 17 | 3.2 | 3.2 | 0.18 | 2.31 | 2.31 | 1009.1 | |
| 20260506184427 | -17 | 26 | 3.2 | 3.2 | 0.18 | 2.31 | 2.31 | 1008.9 | |
| 20260506183925 | -17 | 183 | 0.0 | 0.0 | 0.13 | 2.29 | 2.29 | 1009.0 | |
| 20260506183420 | -17 | 166 | 0.0 | 0.0 | 0.13 | 2.29 | 2.29 | 1009.1 | |
| 20260506182918 | -17 | 46 | 0.0 | 1.6 | 0.18 | 2.26 | 2.26 | 1009.2 | |
| 20260506182415 | -17 | 100 | 0.0 | 1.6 | 0.18 | 2.26 | 2.26 | 1009.2 | |
| 20260506181912 | -17 | 9 | 3.2 | 3.2 | 0.30 | 2.26 | 2.26 | 1009.8 | |
| 20260506181410 | -17 | 357 | 4.8 | 9.7 | 0.13 | 2.24 | 2.24 | 1009.5 | |
| 20260506180907 | -17 | 73 | 0.0 | 0.0 | 0.18 | 2.21 | 2.21 | 1009.3 | |
| 20260506180402 | -17 | 338 | 3.2 | 4.8 | 0.30 | 2.21 | 2.21 | 1009.6 | |
| 20260506175859 | -17 | 346 | 6.4 | 6.4 | 0.43 | 2.18 | 2.18 | 1009.6 | |
| 20260506175356 | -17 | 3 | 3.2 | 3.2 | 0.61 | 2.16 | 2.16 | 1009.3 | |
| 20260506174853 | -17 | 5 | 8.0 | 9.7 | 0.43 | 2.13 | 2.13 | 1009.6 | |
| 20260506174351 | -17 | 329 | 3.2 | 3.2 | 0.30 | 2.08 | 2.08 | 1009.3 | |
| 20260506173848 | -17 | 26 | 3.2 | 4.8 | 0.18 | 2.06 | 2.06 | 1009.5 | |
| 20260506173344 | -17 | 358 | 3.2 | 4.8 | 0.13 | 2.03 | 2.03 | 1009.3 | |
| 20260506172842 | -17 | 57 | 6.4 | 11.3 | 0.13 | 2.03 | 2.03 | 1009.3 | |
| 20260506172338 | -17 | 10 | 3.2 | 6.4 | 0.30 | 2.03 | 2.03 | 1009.5 | |
| 20260506171836 | -17 | 16 | 1.6 | 3.2 | 0.36 | 2.01 | 2.01 | 1009.6 | |
| 20260506171333 | -17 | 230 | 3.2 | 4.8 | 0.30 | 1.98 | 1.98 | 1009.8 | |
| 20260506170830 | -17 | 35 | 3.2 | 3.2 | 0.30 | 1.96 | 1.96 | 1009.6 | |
| 20260506170326 | -17 | 357 | 8.0 | 9.7 | 0.48 | 1.93 | 1.93 | 1009.8 | |
| 20260506165825 | -17 | 345 | 9.7 | 11.3 | 0.43 | 1.91 | 1.91 | 1009.3 | |
| 20260506165323 | -17 | 284 | 1.6 | 1.6 | 0.61 | 1.88 | 1.88 | 1009.7 | |
| 20260506164813 | -17 | 27 | 3.2 | 3.2 | 0.48 | 1.83 | 1.83 | 1009.7 | |
| 20260506164309 | -17 | 341 | 6.4 | 9.7 | 0.48 | 1.78 | 1.78 | 1009.6 | |
| 20260506163807 | -17 | 44 | 4.8 | 6.4 | 0.43 | 1.75 | 1.75 | 1009.8 | |
| 20260506163301 | -17 | 14 | 3.2 | 3.2 | 0.30 | 1.70 | 1.70 | 1009.5 | |
| 20260506162757 | -17 | 94 | 3.2 | 3.2 | 0.36 | 1.68 | 1.68 | 1009.9 | |
| 20260506162256 | -17 | 340 | 11.3 | 16.1 | 0.30 | 1.65 | 1.65 | 1009.5 | |
| 20260506161752 | -17 | 358 | 9.7 | 12.9 | 0.30 | 1.63 | 1.63 | 1009.7 | |
| 20260506161250 | -17 | 5 | 4.8 | 6.4 | 0.30 | 1.60 | 1.60 | 1009.8 | |
| 20260506160747 | -17 | 339 | 4.8 | 6.4 | 0.30 | 1.57 | 1.57 | 1009.7 | |
| 20260506160243 | -17 | 28 | 4.8 | 9.7 | 0.30 | 1.55 | 1.55 | 1009.8 | |
| 20260506155743 | -17 | 52 | 9.7 | 12.9 | 0.30 | 1.52 | 1.52 | 1009.9 | |
| 20260506155239 | -17 | 22 | 3.2 | 4.8 | 0.30 | 1.50 | 1.50 | 1009.9 | |
| 20260506153347 | -17 | 340 | 6.4 | 6.4 | 0.43 | 1.42 | 1.42 | 1010.0 | |
| 20260506152843 | -17 | 72 | 3.2 | 3.2 | 0.30 | 1.40 | 1.40 | 1009.9 | |
| 20260506152341 | -17 | 31 | 1.6 | 3.2 | 0.48 | 1.37 | 1.37 | 1010.0 | |
| 20260506151839 | -17 | 13 | 1.6 | 1.6 | 0.30 | 1.32 | 1.32 | 1010.1 | |
| 20260506151335 | -17 | 359 | 3.2 | 3.2 | 0.43 | 1.30 | 1.30 | 1010.2 | |
| 20260506150833 | -17 | 300 | 3.2 | 6.4 | 0.48 | 1.27 | 1.27 | 1010.1 | |
| 20260506150330 | -17 | 25 | 3.2 | 4.8 | 0.30 | 1.22 | 1.22 | 1010.1 | |
| 20260506145826 | -17 | 193 | 3.2 | 3.2 | 0.43 | 1.19 | 1.19 | 1010.1 | |
| 20260506145323 | -17 | 31 | 8.0 | 9.7 | 0.48 | 1.17 | 1.17 | 1010.1 | |
| 20260506144821 | -17 | 35 | 4.8 | 6.4 | 0.30 | 1.14 | 1.14 | 1010.0 | |
| 20260506144317 | -17 | 25 | 3.2 | 3.2 | 0.13 | 1.09 | 1.09 | 1010.2 | |
| 20260506143816 | -17 | 38 | 0.0 | 1.6 | 0.30 | 1.09 | 1.09 | 1010.0 | |
| 20260506143312 | -17 | 201 | 0.0 | 1.6 | 0.48 | 1.07 | 1.07 | 1010.1 | |
| 20260506142810 | -17 | 336 | 0.0 | 1.6 | 0.48 | 1.04 | 1.04 | 1010.2 | |
| 20260506142308 | -17 | 34 | 4.8 | 4.8 | 0.30 | 0.99 | 0.99 | 1010.0 | |
| 20260506141806 | -17 | 141 | 1.6 | 1.6 | 0.30 | 0.97 | 0.97 | 1010.2 | |
| 20260506141304 | -17 | 256 | 4.8 | 4.8 | 0.30 | 0.94 | 0.94 | 1010.3 | |
| 20260506140801 | -17 | 358 | 6.4 | 6.4 | 0.30 | 0.91 | 0.91 | 1010.1 | |
| 20260506140258 | -17 | 179 | 0.0 | 0.0 | 0.30 | 0.89 | 0.89 | 1010.3 | |
| 20260506135755 | -17 | 75 | 0.0 | 1.6 | 0.13 | 0.86 | 0.86 | 1010.1 | |
| 20260506135251 | -17 | 358 | 1.6 | 3.2 | 0.30 | 0.86 | 0.86 | 1010.1 | |
| 20260506134748 | -17 | 261 | 3.2 | 4.8 | 0.48 | 0.84 | 0.84 | 1010.0 | |
| 20260506134244 | -17 | 83 | 0.0 | 0.0 | 0.43 | 0.81 | 0.81 | 1010.2 | |
| 20260506133742 | -17 | 22 | 3.2 | 3.2 | 0.30 | 0.76 | 0.76 | 1010.1 | |
| 20260506133238 | -17 | 172 | 0.0 | 1.6 | 0.36 | 0.74 | 0.74 | 1010.1 | |
| 20260506132735 | -17 | 12 | 4.8 | 4.8 | 0.30 | 0.71 | 0.71 | 1010.2 | |
| 20260506132232 | -17 | 52 | 6.4 | 9.7 | 0.43 | 0.69 | 0.69 | 1009.9 | |
| 20260506131730 | -17 | 55 | 4.8 | 6.4 | 0.48 | 0.66 | 0.66 | 1010.5 | |
| 20260506131226 | -17 | 332 | 3.2 | 6.4 | 0.30 | 0.61 | 0.61 | 1010.5 | |
| 20260506130723 | -17 | 22 | 3.2 | 4.8 | 0.48 | 0.61 | 0.61 | 1010.4 | |
| 20260506130220 | -17 | 67 | 1.6 | 3.2 | 0.30 | 0.56 | 0.56 | 1010.1 | |
| 20260506125718 | -17 | 33 | 4.8 | 4.8 | 0.30 | 0.53 | 0.53 | 1010.3 | |
| 20260506125216 | -17 | 235 | 1.6 | 1.6 | 0.18 | 0.51 | 0.51 | 1010.3 | |
| 20260506124714 | -17 | 3 | 1.6 | 3.2 | 0.13 | 0.48 | 0.48 | 1010.0 | |
| 20260506124211 | -17 | 354 | 3.2 | 3.2 | 0.30 | 0.48 | 0.48 | 1010.3 | |
| 20260506123708 | -17 | 39 | 3.2 | 4.8 | 0.30 | 0.46 | 0.46 | 1010.0 | |
| 20260506123207 | -17 | 90 | 4.8 | 6.4 | 0.30 | 0.43 | 0.43 | 1010.1 | |
| 20260506122704 | -17 | 208 | 0.0 | 1.6 | 0.36 | 0.41 | 0.41 | 1010.2 | |
| 20260506122201 | -17 | 28 | 3.2 | 4.8 | 0.18 | 0.38 | 0.38 | 1010.4 | |
| 20260506121659 | -17 | 181 | 1.6 | 1.6 | 0.30 | 0.38 | 0.38 | 1010.5 | |
| 20260506121155 | -17 | 348 | 1.6 | 3.2 | 0.43 | 0.36 | 0.36 | 1010.6 | |
| 20260506120653 | -17 | 267 | 4.8 | 6.4 | 0.13 | 0.30 | 0.30 | 1010.3 | |
| 20260506120150 | -17 | 33 | 6.4 | 6.4 | 0.18 | 0.28 | 0.28 | 1010.4 | |
| 20260506115649 | -17 | 334 | 3.2 | 3.2 | 0.30 | 0.28 | 0.28 | 1010.3 | |
| 20260506115146 | -17 | 306 | 6.4 | 6.4 | 0.30 | 0.25 | 0.25 | 1010.1 | |
| 20260506114643 | -17 | 25 | 6.4 | 11.3 | 0.30 | 0.23 | 0.23 | 1010.3 | |
| 20260506114141 | -17 | 188 | 3.2 | 4.8 | 0.13 | 0.20 | 0.20 | 1010.0 | |
| 20260506113640 | -17 | 35 | 3.2 | 4.8 | 0.00 | 0.18 | 0.18 | 1010.5 | |
| 20260506113136 | -17 | 99 | 1.6 | 3.2 | 0.00 | 0.18 | 0.18 | 1009.8 | |
| 20260506112632 | -17 | 39 | 1.6 | 1.6 | 0.18 | 0.18 | 0.18 | 1010.5 | |
| 20260506112130 | -17 | 202 | 0.0 | 0.0 | 0.18 | 0.18 | 0.18 | 1010.2 | |
| 20260506111628 | -17 | 56 | 1.6 | 3.2 | 0.00 | 0.15 | 0.15 | 1010.1 | |
| 20260506111125 | -17 | 205 | 0.0 | 1.6 | 0.00 | 0.15 | 0.15 | 1010.4 | |
| 20260506110622 | -17 | 31 | 3.2 | 4.8 | 0.13 | 0.15 | 0.15 | 1009.9 | |
| 20260506110120 | -17 | 186 | 1.6 | 1.6 | 0.13 | 0.15 | 0.15 | 1010.5 | |
| 20260506105616 | -17 | 210 | 0.0 | 1.6 | 0.13 | 0.15 | 0.15 | 1010.1 | |
| 20260506105113 | -17 | 46 | 1.6 | 1.6 | 0.18 | 0.13 | 0.13 | 1010.5 | |
| 20260506104611 | -17 | 332 | 3.2 | 3.2 | 0.18 | 0.13 | 0.13 | 1010.1 | |
| 20260506104108 | -17 | 266 | 3.2 | 4.8 | 0.00 | 0.10 | 0.10 | 1010.8 | |
| 20260506103606 | -17 | 258 | 1.6 | 1.6 | 0.13 | 0.10 | 0.10 | 1010.2 | |
| 20260506103102 | -17 | 63 | 0.0 | 0.0 | 0.30 | 0.10 | 0.10 | 1010.5 | |
| 20260506102601 | -17 | 232 | 1.6 | 1.6 | 0.18 | 0.08 | 0.08 | 1010.3 | |
| 20260506102058 | -17 | 37 | 4.8 | 4.8 | 0.00 | 0.05 | 0.05 | 1010.1 | |
| 20260506101554 | -17 | 3 | 4.8 | 4.8 | 0.00 | 0.05 | 0.05 | 1009.8 | |
| 20260506101051 | -17 | 46 | 3.2 | 4.8 | 0.00 | 0.05 | 0.05 | 1009.8 | |
| 20260506100550 | -17 | 9 | 3.2 | 4.8 | 0.00 | 0.05 | 0.05 | 1009.8 | |
| 20260506100047 | -17 | 66 | 0.0 | 0.0 | 0.00 | 0.05 | 0.05 | 1009.9 | |
| 20260506095546 | -17 | 242 | 0.0 | 1.6 | 0.00 | 0.05 | 0.05 | 1010.0 | |
| 20260506095042 | -17 | 209 | 1.6 | 1.6 | 0.18 | 0.05 | 0.05 | 1010.0 | |
| 20260506094540 | -17 | 208 | 0.0 | 0.0 | 0.18 | 0.05 | 0.05 | 1009.9 | |
| 20260506094038 | -17 | 222 | 3.2 | 3.2 | 0.00 | 0.03 | 0.03 | 1010.1 | |
| 20260506093536 | -17 | 209 | 0.0 | 0.0 | 0.00 | 0.03 | 0.03 | 1009.9 | |
| 20260506093033 | -17 | 209 | 0.0 | 0.0 | 0.00 | 0.03 | 0.03 | 1010.0 | |
| 20260506092531 | -17 | 221 | 0.0 | 1.6 | 0.00 | 0.03 | 0.03 | 1010.0 | |
| 20260506092027 | -17 | 245 | 3.2 | 3.2 | 0.00 | 0.03 | 0.03 | 1010.3 | |
| 20260506091526 | -17 | 190 | 0.0 | 1.6 | 0.00 | 0.03 | 0.03 | 1010.0 | |
| 20260506091022 | -17 | 187 | 0.0 | 0.0 | 0.00 | 0.03 | 0.03 | 1010.2 | |
| 20260506090520 | -17 | 241 | 4.8 | 4.8 | 0.00 | 0.03 | 0.03 | 1010.5 | |
| 20260506090016 | -17 | 141 | 1.6 | 1.6 | 0.00 | 0.03 | 0.03 | 1010.2 | |
| 20260506085513 | -17 | 0 | 4.8 | 4.8 | 0.00 | 0.03 | 0.03 | 1010.7 | |
| 20260506085010 | -17 | 265 | 4.8 | 4.8 | 0.00 | 0.03 | 0.03 | 1011.4 | |
| 20260506084507 | -17 | 204 | 0.0 | 0.0 | 0.00 | 0.03 | 0.03 | 1010.6 | |
| 20260506084003 | -17 | 206 | 0.0 | 0.0 | 0.00 | 0.03 | 0.03 | 1010.4 | |
| 20260506083500 | -17 | 208 | 1.6 | 1.6 | 0.00 | 0.03 | 0.03 | 1010.6 | |
| 20260506082957 | -17 | 204 | 0.0 | 0.0 | 0.00 | 0.03 | 0.03 | 1010.4 | |
| 20260506082454 | -17 | 218 | 1.6 | 1.6 | 0.00 | 0.03 | 0.03 | 1010.6 | |
| 20260506081950 | -17 | 250 | 0.0 | 1.6 | 0.00 | 0.03 | 0.03 | 1010.6 | |
| 20260506081448 | -17 | 205 | 0.0 | 1.6 | 0.00 | 0.03 | 0.03 | 1010.5 | |
| 20260506080945 | -17 | 47 | 1.6 | 1.6 | 0.00 | 0.03 | 0.03 | 1010.6 | |
| 20260506080442 | -17 | 70 | 1.6 | 1.6 | 0.00 | 0.03 | 0.03 | 1010.6 | |
| 20260506073426 | -17 | 230 | 3.2 | 4.8 | 0.00 | 0.03 | 0.03 | 1011.3 | |
| 20260506072923 | -17 | 212 | 0.0 | 1.6 | 0.00 | 0.03 | 0.03 | 1010.7 | |
| 20260506072420 | -17 | 193 | 0.0 | 1.6 | 0.00 | 0.03 | 0.03 | 1010.8 | |
| 20260506071918 | -17 | 207 | 3.2 | 3.2 | 0.00 | 0.03 | 0.03 | 1010.6 | |
| 20260506071416 | -17 | 221 | 4.8 | 4.8 | 0.00 | 0.03 | 0.03 | 1011.0 | |
| 20260506070912 | -17 | 257 | 3.2 | 3.2 | 0.00 | 0.03 | 0.03 | 1010.7 | |
| 20260506070409 | -17 | 196 | 4.8 | 9.7 | 0.00 | 0.03 | 0.03 | 1010.5 | |
| 20260506062347 | -17 | 247 | 1.6 | 3.2 | 0.00 | 0.03 | 0.03 | 1010.6 | |
| 20260506061843 | -17 | 197 | 3.2 | 3.2 | 0.00 | 0.03 | 0.03 | 1010.6 | |
| 20260506061339 | -17 | 219 | 0.0 | 0.0 | 0.00 | 0.03 | 0.03 | 1010.7 | |
| 20260506060838 | -17 | 219 | 0.0 | 0.0 | 0.00 | 0.03 | 0.03 | 1010.5 | |
| 20260506060335 | -17 | 219 | 1.6 | 1.6 | 0.00 | 0.03 | 0.03 | 1010.6 | |
| 20260506051307 | -17 | 211 | 0.0 | 0.0 | 0.00 | 0.03 | 0.03 | 1011.0 | |
| 20260506050805 | -17 | 207 | 1.6 | 1.6 | 0.00 | 0.03 | 0.03 | 1010.8 | |
| 20260506050302 | -17 | 189 | 1.6 | 1.6 | 0.00 | 0.03 | 0.03 | 1011.0 | |
| 20260506044752 | -17 | 194 | 0.0 | 1.6 | 0.00 | 0.03 | 0.03 | 1011.3 | |
| 20260506044250 | -17 | 214 | 1.6 | 1.6 | 0.00 | 0.03 | 0.03 | 1011.3 | |
| 20260506043747 | -17 | 182 | 0.0 | 1.6 | 0.00 | 0.03 | 0.03 | 1011.1 | |
| 20260506043244 | -17 | 162 | 0.0 | 0.0 | 0.13 | 0.03 | 0.03 | 1011.1 | |
| 20260506042743 | -17 | 203 | 0.0 | 0.0 | 0.13 | 0.03 | 0.03 | 1011.5 | |
| 20260506042242 | -17 | 230 | 0.0 | 0.0 | 0.00 | 0.00 | 0.00 | 1011.6 | |
| 20260506041739 | -17 | 187 | 0.0 | 0.0 | 0.00 | 0.00 | 0.00 | 1011.6 | |
| 20260506041236 | -17 | 111 | 0.0 | 1.6 | 0.00 | 0.00 | 0.00 | 1011.3 | |
| 20260506040734 | -17 | 260 | 3.2 | 4.8 | 0.00 | 0.00 | 0.00 | 1011.2 | |
| 20260506040231 | -17 | 196 | 1.6 | 1.6 | 0.00 | 0.00 | 0.00 | 1010.9 | |
| 20260506035727 | -17 | 204 | 3.2 | 3.2 | 0.00 | 0.15 | 0.15 | 1011.3 | |
| 20260506035224 | -17 | 269 | 9.7 | 11.3 | 0.00 | 0.15 | 0.15 | 1011.2 | |
| 20260506034721 | -17 | 169 | 0.0 | 1.6 | 0.00 | 0.15 | 0.15 | 1010.7 | |
| 20260506034218 | -17 | 178 | 0.0 | 0.0 | 0.00 | 0.15 | 0.15 | 1011.1 | |
| 20260506033716 | -17 | 193 | 4.8 | 4.8 | 0.00 | 0.15 | 0.15 | 1011.0 | |
| 20260506033212 | -17 | 202 | 0.0 | 1.6 | 0.00 | 0.15 | 0.15 | 1010.9 | |
| 20260506032709 | -17 | 182 | 1.6 | 3.2 | 0.00 | 0.15 | 0.15 | 1011.0 | |
| 20260506032206 | -17 | 179 | 1.6 | 1.6 | 0.00 | 0.15 | 0.15 | 1010.5 | |
| 20260506031703 | -17 | 109 | 3.2 | 3.2 | 0.00 | 0.15 | 0.15 | 1011.0 | |
| 20260506031200 | -17 | 180 | 6.4 | 6.4 | 0.00 | 0.15 | 0.15 | 1011.0 | |
| 20260506030659 | -17 | 200 | 1.6 | 1.6 | 0.00 | 0.15 | 0.15 | 1010.9 | |
| 20260506030155 | -17 | 179 | 1.6 | 1.6 | 0.00 | 0.15 | 0.15 | 1010.7 | |
| 20260506025646 | -17 | 222 | 4.8 | 9.7 | 0.18 | 0.15 | 0.15 | 1010.8 | |
| 20260506025142 | -17 | 273 | 9.7 | 14.5 | 0.18 | 0.15 | 0.15 | 1010.8 | |
| 20260506024640 | -17 | 263 | 6.4 | 6.4 | 0.13 | 0.13 | 0.13 | 1010.8 | |
| 20260506024136 | -17 | 224 | 3.2 | 4.8 | 0.13 | 0.13 | 0.13 | 1010.7 | |
| 20260506023633 | -17 | 215 | 9.7 | 11.3 | 0.00 | 0.10 | 0.10 | 1010.6 | |
| 20260506023130 | -17 | 251 | 8.0 | 9.7 | 0.00 | 0.10 | 0.10 | 1010.5 | |
| 20260506022627 | -17 | 301 | 11.3 | 16.1 | 0.00 | 0.10 | 0.10 | 1010.4 | |
| 20260506022125 | -17 | 330 | 6.4 | 9.7 | 0.00 | 0.10 | 0.10 | 1010.2 | |
| 20260506021622 | -17 | 232 | 1.6 | 3.2 | 0.00 | 0.10 | 0.10 | 1010.1 | |
| 20260506021119 | -17 | 353 | 4.8 | 6.4 | 0.00 | 0.10 | 0.10 | 1010.1 | |
| 20260506020616 | -17 | 19 | 1.6 | 1.6 | 0.00 | 0.10 | 0.10 | 1009.7 | |
| 20260506020113 | -17 | 186 | 3.2 | 3.2 | 0.00 | 0.10 | 0.10 | 1009.8 | |
| 20260506015611 | -17 | 209 | 0.0 | 1.6 | 0.00 | 0.10 | 0.10 | 1009.9 | |
| 20260506015107 | -17 | 213 | 0.0 | 0.0 | 0.00 | 0.10 | 0.10 | 1009.6 | |
| 20260506014605 | -17 | 210 | 1.6 | 1.6 | 0.00 | 0.10 | 0.10 | 1009.7 | |
| 20260506014100 | -17 | 216 | 0.0 | 0.0 | 0.00 | 0.10 | 0.10 | 1009.5 | |
| 20260506013559 | -17 | 201 | 1.6 | 1.6 | 0.00 | 0.10 | 0.10 | 1009.6 | |
| 20260506013055 | -17 | 178 | 1.6 | 1.6 | 0.00 | 0.10 | 0.10 | 1009.1 | |
| 20260506012551 | -17 | 150 | 4.8 | 4.8 | 0.00 | 0.10 | 0.10 | 1009.3 | |
| 20260506012048 | -17 | 176 | 1.6 | 3.2 | 0.00 | 0.10 | 0.10 | 1009.1 | |
| 20260506011546 | -17 | 9 | 0.0 | 0.0 | 0.00 | 0.10 | 0.10 | 1009.2 | |
| 20260506011042 | -17 | 9 | 3.2 | 3.2 | 0.00 | 0.10 | 0.10 | 1009.5 | |
| 20260506010536 | -17 | 332 | 1.6 | 3.2 | 0.00 | 0.10 | 0.10 | 1009.3 | |
| 20260506010032 | -17 | 246 | 0.0 | 1.6 | 0.00 | 0.10 | 0.10 | 1009.5 | |
| 20260506005529 | -17 | 1 | 3.2 | 4.8 | 0.00 | 0.10 | 0.10 | 1009.2 | |
| 20260506005025 | -17 | 217 | 1.6 | 3.2 | 0.00 | 0.10 | 0.10 | 1009.2 | |
| 20260506004523 | -17 | 240 | 3.2 | 3.2 | 0.00 | 0.10 | 0.10 | 1009.0 | |
| 20260506004019 | -17 | 211 | 0.0 | 0.0 | 0.00 | 0.10 | 0.10 | 1008.6 | |
| 20260506003515 | -17 | 219 | 1.6 | 1.6 | 0.00 | 0.10 | 0.10 | 1008.7 | |
| 20260506003011 | -17 | 215 | 1.6 | 1.6 | 0.00 | 0.10 | 0.10 | 1008.5 | |
| 20260506002508 | -17 | 192 | 0.0 | 0.0 | 0.00 | 0.10 | 0.10 | 1007.9 | |
| 20260506002003 | -17 | 215 | 0.0 | 0.0 | 0.00 | 0.10 | 0.10 | 1008.6 | |
| 20260506001500 | -17 | 200 | 0.0 | 1.6 | 0.00 | 0.10 | 0.10 | 1008.5 | |
| 20260506000957 | -17 | 194 | 6.4 | 6.4 | 0.00 | 0.10 | 0.10 | 1008.3 |